Погода в Решице

Румыния     45°19′00″N   21°52′37″E
темп.,
°C
ветер,
м/с
пор.,
м/с
влажн.,
%
обл.,
%
осадки,
мм/ч
давл.,
гПа
погр.,
м
14 августа, вс
вс1400:00+17ююв1171100 0.1 101112
03:00+15зюз1190100 0.6 101212
06:00+15св1195100 1.6 101023
09:00+15ссв129697 1.9 1011104
12:00+19ссз227399 0.1 1011656
15:00+22сз2260100 0.3 10101152
18:00+21ссз236776 0.3 1009331
21:00+17вюв2285100 0.5 100913
15 августа, пн
пн1500:00+16ююз118799 0.1 100912
03:00+15вюв119128 0.1 100912
06:00+14ю01915 0.0 100912
09:00+19ссз12737 0.0 1009241
12:00+24сз33515 0.0 10091028
15:00+27ссз33405 0.0 10081853
18:00+27ссз343878 0.0 10072079
21:00+21юв225896 0.2 100816
16 августа, вт
вт1600:00+19ю226288 0.3 100920
03:00+17ю32738 0.6 101022
06:00+18ююв227696 0.5 101017
09:00+21юз11674 0.9 1010122
12:00+27зсз33419 0.0 10101406
15:00+29зсз3434100 0.0 10102671
18:00+28с253486 0.0 10091969
21:00+21ююв336068 0.4 101041
17 августа, ср
ср1700:00+21ю345533 0.1 101266
03:00+19ю33615 0.1 101239
06:00+18ю326313 0.0 101231
09:00+23зюз23544 0.0 1012301
12:00+27з33400 0.0 10121076
15:00+30сз34307 0.0 10112820
18:00+29ссз243242 0.0 10112024
21:00+23ю22434 0.0 101215
18 августа, чт
чт1800:00+22ю334257 0.0 101227
03:00+21ю33472 0.0 101236
06:00+20ююз32500 0.0 101230
09:00+25юз22413 0.0 1012193
12:00+30з35317 0.0 10121499
15:00+32сз46261 0.0 10112840
18:00+32сз36240 0.0 10092822
21:00+25ю22363 0.0 101015